Location: Ballingbuur
(53.0000°N, 5.7667°E)
Time: 06:19:27
(UTC+00:00)

Cosmos 1242 Rocket - Pass Details

Date: 29 November 2020
Orbit: 447 x 485 km, 81.2° (Epoch: 23 January)

Event Time Altitude Azimuth Distance (km) Brightness Sun altitude
Exits shadow 06:16:08 - 347° (NNW) 2,461 5.8 -9.8°
Reaches altitude 10° 06:18:02 10° 349° (N) 1,669 5.0 -9.5°
Maximum altitude 06:21:42 78° 75° (ENE) 502 2.7 -9.0°
Drops below altitude 10° 06:25:22 10° 163° (SSE) 1,668 5.9 -8.5°
Sets 06:27:28 0° 165° (SSE) 2,546 6.9 -8.3°
